Lapse_Rate
6.5 6.2 6.2 6.5 6.7 6.9 7.0 7.0 6.8 6.7 6.7 6.4 6.2 6.2 6.4 6.2 6.0 5.9 6.0 6.0 5.9 5.9 6.0 6.0 6.2 5.6 5.8 6.1 6.1 5.9 5.9 6.0 6.1 6.1 6.3 6.4 6.3 6.4 6.6 6.6 6.5 6.5 6.3
6.0 5.3 5.9 6.7 6.6 6.5 6.8 6.9 6.8 6.7 6.6 6.4 6.5 6.0 6.2 6.4 6.4 6.2 5.8 5.6 5.7 5.8 5.9 5.8 6.0 6.0 5.9 6.0 6.1 6.2 6.2 6.1 6.1 6.2 6.3 6.2 6.4 6.5 6.6 6.6 6.5 6.5 6.4
6.2 5.9 6.3 6.6 6.4 6.6 6.6 6.7 6.8 6.8 6.8 6.6 6.5 6.4 6.1 6.0 6.4 6.7 6.4 6.2 5.7 5.5 5.7 5.8 5.8 6.1 5.8 5.7 6.0 6.1 6.3 6.3 6.3 6.4 6.4 6.4 6.6 6.8 6.8 6.7 6.6 6.5 6.5
6.1 6.1 6.2 6.3 6.2 6.3 6.4 6.5 6.6 6.6 6.5 6.5 6.5 6.4 6.2 6.0 5.6 5.7 6.4 6.5 6.5 6.3 6.0 5.6 5.7 5.8 6.2 6.0 5.9 5.9 6.1 6.2 6.4 6.4 6.5 6.5 6.3 6.4 6.6 6.7 6.4 6.3 6.5
6.4 6.3 6.1 5.9 6.0 6.1 6.3 6.3 6.4 6.4 6.4 6.4 6.4 6.3 6.1 6.0 5.9 5.8 5.8 6.2 6.7 6.8 6.4 6.2 5.9 5.8 5.9 6.0 6.0 6.0 6.1 6.3 6.3 6.5 6.6 6.5 6.5 6.4 6.3 6.4 6.4 5.8 6.2
6.1 6.0 6.0 5.9 5.8 5.8 5.8 5.9 6.0 6.1 6.1 6.1 6.1 6.0 6.0 6.0 6.0 6.0 6.0 6.1 6.2 6.4 6.3 6.5 6.3 6.2 6.1 6.0 6.0 6.0 6.1 6.2 6.5 6.4 6.4 6.5 6.5 6.3 6.0 6.1 6.2 6.0 5.8
6.0 6.0 5.7 5.4 5.5 5.7 5.8 5.9 5.8 5.8 5.8 5.8 5.8 5.8 5.9 6.0 6.0 6.0 6.0 5.9 5.9 5.9 6.1 6.1 6.0 6.1 6.2 6.1 6.1 6.1 6.0 6.1 6.4 6.6 6.5 6.4 6.5 6.3 6.2 6.0 6.2 6.3 6.1
5.8 5.6 5.5 5.5 5.6 5.7 5.7 5.8 5.8 5.9 5.9 5.9 5.9 5.9 5.9 6.0 6.1 6.2 6.0 5.8 5.7 5.7 5.7 5.9 6.1 6.1 6.0 6.0 5.9 6.0 6.1 6.1 6.1 6.3 6.7 6.6 6.6 6.6 6.6 6.5 6.2 6.1 6.1
5.5 5.6 5.6 5.7 5.7 5.7 5.8 5.9 5.9 5.9 5.9 6.0 6.1 6.2 6.2 6.1 6.1 5.9 5.7 5.5 5.6 5.6 5.5 5.6 5.6 5.7 5.8 6.0 6.1 6.2 6.3 6.2 6.2 6.4 6.6 6.5 6.5 6.6 6.6 6.6 6.7 6.4 6.0
5.5 5.6 5.7 5.6 5.7 5.9 5.9 6.0 6.1 6.1 6.1 6.1 6.2 6.3 6.2 6.0 6.0 6.0 5.7 5.6 5.4 5.5 5.8 5.5 5.4 5.4 5.4 5.7 6.2 6.6 6.8 6.8 6.7 6.6 6.6 6.8 6.7 6.5 6.6 6.4 6.7 5.9 6.1
5.6 5.6 5.6 5.7 5.9 5.8 5.9 6.1 6.0 6.0 6.0 6.2 6.2 6.2 6.2 6.3 6.3 6.2 6.0 5.9 5.8 5.7 5.5 5.2 5.0 4.8 5.1 5.9 6.8 7.3 7.4 7.3 7.1 6.8 6.6 6.7 6.8 6.8 6.7 6.4 6.6 6.0 5.9
5.4 5.3 5.3 5.4 5.8 5.9 6.0 6.0 6.0 6.1 6.1 6.0 6.1 6.2 6.1 6.1 6.0 5.8 6.0 5.8 5.8 5.6 5.2 4.9 4.6 4.9 5.6 6.5 7.3 7.5 7.1 7.0 6.9 7.1 7.1 7.0 7.1 6.9 6.7 6.5 6.7 6.2 6.2
5.4 5.2 5.3 5.6 6.0 6.0 6.2 6.2 6.3 6.2 6.2 6.2 6.1 6.2 6.2 6.0 5.9 5.9 6.1 5.8 5.5 5.8 5.4 5.0 4.6 5.1 6.1 6.7 7.1 7.5 6.9 6.7 6.8 6.6 7.4 7.4 7.4 6.9 6.6 6.6 6.5 6.5 5.9
5.6 5.7 5.8 6.0 6.3 6.4 6.5 6.6 6.5 6.4 6.3 6.3 6.4 6.3 6.2 6.1 6.2 6.4 6.4 6.3 6.2 5.6 5.3 4.9 4.8 5.4 6.0 6.3 6.8 7.2 7.1 6.9 7.1 7.3 7.4 7.4 7.4 7.2 6.5 5.9 5.9 6.1 6.0
5.7 5.8 5.9 6.0 6.3 6.5 6.6 6.6 6.6 6.4 6.3 6.4 6.2 6.1 6.2 6.4 6.4 6.4 6.4 6.2 5.8 5.5 5.5 5.1 5.2 5.5 5.8 6.2 6.8 7.3 7.2 7.4 7.7 7.8 7.7 7.5 7.1 6.7 6.4 6.3 6.3 5.9 6.1
6.0 6.1 6.1 6.0 6.1 6.3 6.5 6.5 6.5 6.2 6.3 6.3 6.1 6.3 6.4 6.2 6.1 6.0 5.9 5.5 5.6 5.4 5.4 5.4 5.3 5.6 5.7 6.2 6.6 6.9 7.1 7.4 7.7 7.8 7.5 6.8 6.9 6.6 6.4 6.3 6.3 6.1 6.1
6.2 6.1 6.0 5.9 5.9 6.1 6.3 6.3 6.3 6.3 6.3 6.3 6.3 6.2 6.0 5.8 5.7 5.6 5.5 5.5 5.6 5.5 5.5 5.4 5.6 5.7 5.7 5.8 6.0 6.1 6.4 6.8 7.0 7.3 6.9 7.0 6.9 6.7 6.4 6.0 5.7 5.6 5.6
6.0 6.0 5.9 5.8 5.9 6.1 6.1 6.3 6.5 6.4 6.3 6.4 6.3 5.9 5.6 5.5 5.5 5.5 5.5 5.6 5.5 5.4 5.5 5.4 5.6 5.6 5.4 5.4 5.5 5.8 6.0 6.2 6.7 6.5 6.7 6.6 6.4 6.4 6.0 5.8 5.7 5.6 5.7
6.0 5.9 5.7 5.8 5.9 6.1 6.0 6.0 6.3 6.5 6.4 6.3 6.3 6.2 6.0 5.9 5.9 5.9 5.7 5.4 5.5 5.4 5.3 5.5 5.6 5.4 5.0 4.7 5.3 5.4 5.6 5.8 6.0 6.1 6.1 6.0 6.2 6.2 6.0 6.2 6.2 6.0 5.9
5.8 5.8 5.8 5.8 6.0 5.9 5.8 6.0 6.1 6.2 6.4 6.4 6.3 6.2 6.1 6.0 5.9 5.9 5.8 5.7 5.7 5.6 5.5 5.5 5.5 5.7 5.9 6.1 6.4 6.2 6.2 6.1 6.0 6.0 6.1 6.3 6.5 6.3 6.3 6.2 6.2 6.0 5.9
5.6 5.6 5.7 5.8 5.8 5.5 5.7 6.0 6.0 6.1 6.2 6.4 6.4 6.3 6.1 6.0 5.9 5.9 5.9 5.9 5.8 5.7 5.7 5.8 5.9 6.1 6.2 6.2 6.2 6.4 6.5 6.5 6.6 6.6 6.7 6.6 6.5 6.4 6.2 6.1 6.1 6.0 6.0
5.4 5.4 5.7 5.6 5.4 5.4 5.7 5.9 6.0 6.0 6.1 6.2 6.4 6.3 6.1 5.9 5.8 5.8 5.9 6.0 5.9 5.9 5.8 6.0 6.1 6.1 6.2 6.3 6.4 6.6 6.7 6.8 6.7 6.7 6.7 6.7 6.7 6.7 6.5 6.4 6.3 6.1 6.0
5.3 5.3 5.5 5.3 5.2 5.4 5.5 5.8 5.9 5.9 6.1 6.3 6.2 6.2 6.0 5.9 5.8 5.8 5.9 5.9 5.8 5.7 5.8 5.9 6.1 6.2 6.3 6.5 6.7 6.8 6.7 6.8 6.9 7.0 7.0 7.0 6.9 6.8 6.5 6.4 6.2 6.0 5.9
5.3 5.3 5.1 5.0 5.1 5.3 5.4 5.5 5.6 5.8 6.0 6.1 6.2 6.1 6.0 5.9 5.8 5.8 5.9 5.8 5.8 5.8 5.9 6.0 6.2 6.2 6.3 6.4 6.6 6.7 6.8 6.8 6.8 6.8 6.7 6.7 6.5 6.3 6.2 6.0 6.0 5.8 5.6
5.7 5.6 5.3 5.0 4.9 5.0 5.1 5.1 5.4 5.7 5.8 5.9 6.0 6.0 5.9 5.9 5.8 5.7 5.8 5.8 5.9 5.9 5.9 6.0 6.1 6.2 6.3 6.4 6.6 6.8 7.0 7.1 7.1 7.0 6.9 6.8 6.5 6.2 6.1 6.0 5.8 5.6 5.3
6.0 5.6 5.5 5.3 5.0 5.0 5.0 5.0 5.2 5.5 5.7 5.7 5.9 5.9 6.0 5.9 5.8 5.7 5.7 5.6 5.7 5.8 5.8 5.9 6.0 6.1 6.2 6.4 6.6 6.7 6.8 6.9 6.9 6.8 6.6 6.4 6.1 5.9 5.8 5.6 5.4 5.1 4.9
Wind_Speed
6 3 7 8 8 7 7 6 6 6 1 3 3 3 5 5 4 7 14 9 15 15 13 6 5 11 10 11 10 5 6 5 5 4 1 1 4 4 4 8 8 9 15
6 8 8 8 7 6 7 7 6 6 5 2 2 2 4 6 7 5 10 14 11 9 9 10 6 6 8 10 11 10 4 4 6 4 3 3 3 4 5 4 5 7 15
5 7 7 7 5 6 5 6 7 7 5 5 4 4 2 1 2 3 5 9 14 14 12 8 9 8 5 8 10 10 10 8 5 8 5 3 5 2 3 7 5 6 4
6 7 6 6 5 4 3 5 5 4 5 5 4 4 4 4 4 5 7 7 12 13 16 13 7 9 9 8 9 7 10 6 10 1 8 1 4 4 2 2 4 5 6
6 7 6 2 6 5 4 4 6 7 5 0 3 4 5 4 4 4 6 7 8 11 10 11 9 6 8 8 6 6 10 10 8 9 3 3 2 2 3 3 4 3 4
6 5 6 4 5 5 5 5 6 6 7 7 5 5 6 7 5 5 4 4 4 5 7 8 7 7 5 8 5 8 7 9 8 7 5 5 5 4 4 2 2 4 4
6 5 5 3 4 5 5 6 7 7 7 8 8 7 6 5 5 6 4 6 3 0 3 5 5 4 6 5 5 7 6 8 10 8 9 4 4 2 4 3 2 3 1
6 5 4 3 5 6 6 6 7 7 8 8 8 7 8 4 4 4 5 4 2 2 2 4 5 6 6 5 5 5 6 6 9 11 5 4 5 4 3 4 4 1 2
4 5 5 5 4 5 6 7 7 7 7 7 7 7 7 7 5 7 6 4 3 2 3 3 3 4 5 6 5 5 6 5 8 7 6 3 2 2 2 2 2 3 3
6 5 4 4 5 6 6 8 7 7 7 7 7 7 7 7 7 6 7 7 6 2 3 3 3 3 3 3 3 3 2 4 2 3 5 3 2 3 3 3 3 3 3
6 5 4 3 5 6 7 7 7 7 7 7 7 7 7 7 7 6 5 6 6 6 5 4 3 3 3 3 3 3 3 5 4 4 4 5 5 4 4 3 3 2 3
6 3 2 2 6 7 6 7 7 7 7 7 7 9 9 9 9 9 8 7 7 7 6 6 4 4 3 4 6 4 4 6 5 4 5 5 5 5 5 4 4 4 3
6 2 4 4 6 6 6 7 7 7 6 6 7 8 8 9 10 11 12 11 9 7 8 8 8 7 7 5 4 6 5 6 5 5 5 5 6 5 5 3 2 2 1
5 4 4 5 7 7 6 6 7 6 6 7 6 6 8 8 8 8 8 9 9 10 9 9 8 8 7 6 5 8 5 7 6 5 5 5 5 5 6 5 4 2 4
5 5 5 6 6 6 5 5 5 6 5 6 7 6 7 6 7 7 8 8 9 7 7 8 8 7 7 5 8 8 7 7 8 6 5 4 7 9 8 5 4 4 3
5 5 7 6 5 4 3 4 5 4 6 6 6 6 5 7 7 7 8 9 8 8 7 8 8 9 6 13 13 10 7 8 7 7 7 7 9 7 9 8 8 4 3
5 6 6 5 3 3 4 5 5 5 6 6 5 6 6 6 7 8 9 9 8 8 9 10 10 10 9 14 14 15 8 7 7 5 4 4 4 5 4 4 2 1 2
6 7 5 4 3 3 4 5 6 6 7 7 7 7 6 7 7 8 8 8 6 8 7 9 10 9 8 14 15 16 8 7 6 5 4 4 3 2 1 1 1 1 2
7 7 6 5 4 4 4 4 6 6 6 7 7 7 7 7 7 8 7 6 7 8 8 7 9 8 6 14 14 10 6 5 5 3 3 2 3 1 1 1 3 1 3
8 7 6 6 5 4 4 5 7 6 6 6 6 6 6 6 7 6 6 8 7 8 6 7 6 9 4 9 9 7 3 3 2 3 2 5 4 3 3 4 4 2 2
9 8 6 6 6 5 5 7 5 5 5 5 5 6 6 6 6 5 6 6 6 4 2 3 2 3 4 5 9 8 3 3 2 3 3 1 4 4 5 5 4 2 4
8 8 7 6 6 7 6 5 4 3 4 6 5 5 4 4 3 5 3 3 4 4 3 4 4 4 5 6 6 7 6 6 2 2 3 3 4 5 6 4 6 6 5
7 7 7 7 6 7 7 6 6 6 5 5 5 5 6 5 5 3 3 2 3 3 2 2 2 1 2 2 3 4 5 5 2 1 2 4 5 6 6 7 7 6 3
8 7 9 8 7 7 7 7 7 7 6 5 5 4 4 4 3 3 3 3 3 2 2 2 1 0 0 2 3 4 4 9 4 5 2 4 6 6 5 4 4 2 2
8 9 9 8 9 8 7 7 7 6 6 6 4 4 3 4 5 4 3 3 2 3 1 1 1 2 2 2 3 3 3 3 5 5 3 2 1 2 3 2 2 3 3
8 8 8 7 9 9 7 7 7 7 7 6 4 4 3 3 4 4 3 6 4 4 4 3 2 2 1 5 6 5 7 6 7 3 3 2 2 1 2 3 3 2 5
Wind_Direction
248 206 73 37 7 346 340 336 323 298 287 221 191 165 197 211 223 247 271 267 216 201 206 209 214 183 192 202 200 177 181 204 163 102 23 296 233 250 223 200 193 181 184
258 75 62 54 20 355 350 341 304 290 278 257 243 179 189 214 216 211 236 263 286 269 198 212 210 215 199 203 203 186 170 181 175 156 120 211 305 258 234 211 198 188 184
345 82 92 97 63 45 5 345 338 334 327 333 336 327 326 214 179 218 227 231 242 258 275 246 219 205 232 201 214 188 185 196 213 184 152 169 217 163 224 221 205 188 180
88 77 70 61 107 86 19 351 327 294 284 303 318 293 257 264 231 202 214 219 213 223 236 252 263 217 217 215 204 203 195 163 199 226 236 224 144 179 204 246 214 198 194
105 122 103 148 96 67 12 352 336 331 340 264 266 272 280 275 271 281 239 208 208 210 210 219 243 235 232 238 215 195 214 201 188 205 195 215 219 219 150 183 215 217 198
150 120 96 29 58 45 15 356 345 342 343 340 303 254 257 269 282 291 278 245 222 198 195 214 208 244 233 240 226 218 219 204 221 199 209 202 196 212 197 188 164 187 235
116 82 78 23 38 26 9 1 359 347 341 346 339 327 327 299 280 288 297 303 288 228 218 180 198 226 240 236 221 221 211 212 209 198 213 212 226 220 206 166 147 155 159
108 102 69 38 26 22 10 8 354 349 354 355 347 338 334 325 317 329 306 291 277 213 185 209 196 214 232 246 237 226 226 198 215 225 206 210 209 226 209 215 151 192 175
123 97 53 52 31 25 11 5 360 357 359 352 346 336 339 338 333 330 329 324 350 41 45 19 352 262 234 223 223 230 230 212 207 203 197 185 168 186 198 205 186 167 157
127 92 67 54 40 31 19 6 2 8 348 356 349 335 325 330 333 328 315 319 321 22 66 23 334 328 310 301 307 300 293 184 182 155 165 130 139 121 129 139 137 130 135
101 76 61 55 76 48 24 5 15 355 2 357 334 330 331 334 340 334 343 1 8 31 45 23 346 6 55 95 84 61 56 69 65 66 143 133 135 123 115 107 105 101 111
99 80 78 77 76 53 24 7 8 359 0 341 344 13 2 356 360 353 0 3 2 20 23 7 356 18 68 124 118 117 121 117 114 111 114 132 132 129 130 139 147 186 147
96 27 28 41 77 60 45 18 357 332 352 350 21 14 4 8 8 18 15 14 13 21 33 37 33 34 24 42 72 107 95 101 114 130 136 139 136 139 133 141 168 137 184
90 68 37 34 60 50 35 355 341 334 351 17 18 19 13 14 16 25 24 24 24 30 39 46 43 39 45 57 68 80 79 81 84 89 117 143 157 149 128 106 116 109 105
78 64 55 54 45 35 21 351 349 343 17 26 20 22 22 19 29 37 43 44 43 37 31 56 55 50 48 50 60 67 74 82 76 62 69 84 107 120 122 139 140 158 143
98 75 65 51 34 23 2 359 3 335 34 40 32 25 37 40 39 47 53 52 48 48 47 56 62 61 61 72 81 82 81 76 78 71 50 48 70 98 121 142 149 170 142
114 87 81 71 45 31 22 26 356 11 43 39 40 37 36 50 47 51 56 53 54 60 61 60 63 62 65 76 85 89 77 81 73 73 76 84 69 57 35 47 42 320 260
125 105 106 104 82 67 55 46 39 38 49 47 40 40 48 53 54 58 57 55 53 56 58 57 55 57 65 81 87 84 73 75 73 71 68 91 80 78 147 197 70 302 302
112 115 125 123 99 71 68 87 71 62 60 54 53 53 59 64 58 61 60 64 68 62 61 57 60 57 53 71 78 78 68 70 70 60 73 154 168 159 317 296 230 273 308
133 133 149 122 115 109 108 90 81 69 64 62 63 61 65 62 69 65 67 81 79 77 72 66 67 79 53 71 76 90 90 92 138 184 123 55 53 22 354 31 11 63 7
133 134 146 131 143 147 126 103 96 87 87 77 76 74 71 69 64 74 89 89 90 80 66 99 124 120 92 48 51 71 44 44 61 55 50 75 24 12 9 4 4 338 340
144 151 138 146 161 162 145 133 120 139 133 122 114 109 100 111 134 129 140 145 129 112 105 86 58 41 41 55 51 47 45 38 38 38 35 36 35 348 329 332 316 323 338
161 159 147 153 181 170 166 153 178 182 174 148 155 156 166 178 202 179 150 99 91 89 75 72 101 56 26 40 29 22 21 19 43 63 343 344 338 341 351 335 327 336 330
183 167 156 171 187 185 176 161 173 187 162 140 138 136 129 119 86 48 41 62 44 51 81 59 75 165 274 20 14 20 11 18 27 23 328 314 318 326 309 323 322 298 261
177 178 177 177 181 176 182 166 177 161 150 148 144 137 141 122 99 77 54 85 47 64 100 31 54 55 37 5 357 355 358 353 332 348 331 323 323 329 324 312 293 286 287
173 177 184 178 172 172 168 167 172 162 149 155 158 171 156 141 149 136 91 79 94 61 58 50 64 355 343 349 338 339 333 330 326 344 310 309 346 334 319 316 310 313 319